Regional Weather Roundup
Issued by NWS

Home | Current Version | Previous Version | Graphics & Text | Print | Product List | Glossary On
Versions: 1 2 3 4 5 6 7 8 9 10 11 12 13 14 15 16 17 18 19 20 21 22 23 24 25 26 27 28 29 30 31 32 33 34 35 36 37 38 39 40 41 42 43 44 45 46 47 48 49 50
000
ASUS43 KBIS 040202
RWRND

NORTH DAKOTA REGIONAL WEATHER ROUNDUP
NATIONAL WEATHER SERVICE BISMARCK ND
900 PM CDT MON AUG 03 2015

NOTE: "FAIR" INDICATES FEW OR NO CLOUDS BELOW 12,000 FEET WITH NO
SIGNIFICANT WEATHER AND/OR OBSTRUCTIONS TO VISIBILITY.


NDZ001>003-009>011-017-040300-
NORTHWEST NORTH DAKOTA

CITY           SKY/WX    TMP DP  RH WIND       PRES   REMARKS
WILLISTON      CLEAR     78  46  32 E9        29.94R
MINOT          CLEAR     71  51  49 E3        29.94S
MINOT AFB      CLEAR     76  54  46 S2        29.93S
$$

NDZ018>021-031>035-040>046-040300-
SOUTHWEST NORTH DAKOTA

CITY           SKY/WX    TMP DP  RH WIND       PRES   REMARKS
BISMARCK       CLEAR     72  50  45 NE5       29.96R
DICKINSON      CLEAR     69  53  56 E8        29.96R
GARRISON         N/A     69  56  62 CALM      29.96R
HETTINGER ARPT PTCLDY    74  53  48 E10       29.98R
$$

NDZ004>008-012>016-024-026-027-054-040300-
NORTHEAST NORTH DAKOTA

CITY           SKY/WX    TMP DP  RH WIND       PRES   REMARKS
GRAND FORKS    PTCLDY    67  52  58 CALM      29.90S
GRND FRKS AFB  CLEAR     66  58  75 W3        29.91S
DEVILS LAKE    CLEAR     70  46  43 CALM      29.93S
$$

NDZ022-023-025-028>030-036>039-047>053-040300-
SOUTHEAST NORTH DAKOTA

CITY           SKY/WX    TMP DP  RH WIND       PRES   REMARKS
FARGO          CLEAR     71  49  45 NW3       29.91S
JAMESTOWN      CLEAR     68  53  58 CALM      29.94S
$$



USA.gov is the U.S. government's official web portal to all federal, state and local government web resources and services.